Regional Weather Roundup
Issued by NWS

Home | Current Version | Previous Version | Text Only | Print | Product List | Glossary On
Versions: 1 2 3 4 5 6 7 8 9 10 11 12 13 14 15 16 17 18 19 20 21 22 23 24 25 26 27 28 29 30 31 32 33 34 35 36 37 38 39 40 41 42 43 44 45 46 47 48 49 50
000
ASUS43 KLMK 221110
RWRKY
KENTUCKY REGIONAL WEATHER ROUNDUP
NATIONAL WEATHER SERVICE LOUISVILLE KY
600 AM EST WED FEB 22 2017

NOTE "FAIR" INDICATES FEW OR NO CLOUDS BELOW 12,000 FEET
WITH NO SIGNIFICANT WEATHER AND/OR OBSTRUCTIONS TO VISIBILITY.

KYZ001>023-026-027-061>063-070>075-221200-
WESTERN AND SOUTH CENTRAL KENTUCKY

CITY           SKY/WX    TMP DP  RH WIND       PRES   REMARKS
PADUCAH        CLOUDY    57  55  93 CALM      29.91R FOG
HENDERSON      CLOUDY    54  50  87 CALM      29.90R VSB 3/4
OWENSBORO      CLOUDY    55  55 100 CALM      29.91R FOG
HOPKINSVILLE   MOCLDY    56  56 100 CALM      29.91R
BOWLING GREEN  FOG       55  54  96 CALM      29.93R VSB 1/2
GLASGOW        CLOUDY   N/A N/A N/A E5        29.93S HAZE
$$

KYZ024-025-028>034-038-045-046-053-221200-
NORTH CENTRAL KENTUCKY

CITY           SKY/WX    TMP DP  RH WIND       PRES   REMARKS
LOUISVILLE/SDF CLOUDY    58  54  86 SE6       29.91R
LOUISVILLE/LOU CLOUDY    58  54  86 CALM      29.92R
FORT KNOX      CLOUDY    54  54 100 CALM      29.90S FOG
$$

KYZ035>037-039>044-047>052-055>060-089>105-221200-
NORTHEAST KENTUCKY

CITY           SKY/WX    TMP DP  RH WIND       PRES   REMARKS
LEXINGTON      CLOUDY    56  53  90 SE6       29.94R
COVINGTON      CLOUDY    56  55  97 S5        29.92R
FRANKFORT      CLOUDY    57  53  86 S3        29.92S
$$

KYZ054-064>069-076>088-106>120-221200-
SOUTHEAST KENTUCKY

CITY           SKY/WX    TMP DP  RH WIND       PRES   REMARKS
JACKSON        LGT RAIN  53  52  96 CALM      29.96S FOG
LONDON         LGT RAIN  54  52  93 VRB6      29.93F FOG
SOMERSET       LGT RAIN  54  54 100 S5        29.94S
MIDDLESBORO    DRIZZLE   53  53 100 CALM      29.98R
MONTICELLO     LGT RAIN  55  53  93 E8        29.95S
$$





USA.gov is the U.S. government's official web portal to all federal, state and local government web resources and services.